Regional Weather Roundup
Issued by NWS

Home | Current Version | Previous Version | Graphics & Text | Print | Product List | Glossary On
Versions: 1 2 3 4 5 6 7 8 9 10 11 12 13 14 15 16 17 18 19 20 21 22 23 24 25 26 27 28 29 30 31 32 33 34 35 36 37 38 39 40 41 42 43 44 45 46 47 48 49 50
000
ASUS45 KTFX 241110
RWRMT
MONTANA REGIONAL WEATHER ROUNDUP
NATIONAL WEATHER SERVICE GREAT FALLS MT
500 AM MDT THU MAY 24 2018

NOTE: "FAIR" INDICATES FEW OR NO CLOUDS BELOW 12000 FEET WITH NO
SIGNIFICANT WEATHER AND/OR OBSTRUCTIONS TO VISIBILITY.

MTZ001>007-043-241200-
WEST OF THE DIVIDE

CITY           SKY/WX    TMP DP  RH WIND       PRES   REMARKS
KALISPELL      CLOUDY    57  57 100 SW3       29.88R
MISSOULA       LGT RAIN  54  52  93 CALM      29.94R
BUTTE          FAIR      48  45  89 CALM      30.01S
MULLAN PASS    MOCLDY    48  47  96 SW6       29.98S
ANACONDA         N/A     48  45  87 CALM      29.98R
DEER LODGE       N/A     52  48  87 S6        29.99R
HAMILTON         N/A     55  48  76 MISG      29.94S
PLAINS           N/A     55  52  90 CALM      29.91R
RONAN            N/A     55  54  94 SE5       29.91S
$$

MTZ008-052>055-241200-
SOUTHWEST MONTANA

CITY           SKY/WX    TMP DP  RH WIND       PRES   REMARKS
BOZEMAN        FAIR      47  44  90 E5        29.97S
DILLON         CLOUDY    50  46  86 S9        30.01S
ENNIS          MOCLDY    50  45  81 S12       30.06R
W YELLOWSTONE  CLOUDY    43  43 100 CALM      30.10S
TWIN BRIDGES     N/A     48  42  80 SE2       30.00
$$

MTZ009-010-012-014-046-048-049-054-241200-
EAST SLOPES AND CENTRAL MONTANA

CITY           SKY/WX    TMP DP  RH WIND       PRES   REMARKS
CUT BANK       FAIR      49  46  90 W3        29.82S
GREAT FALLS    FAIR      57  48  72 SW14      29.85S
MALMSTROM AFB  MOCLDY    51  47  86 SW7       29.85S
HELENA         FAIR      50  49  96 N5        29.92R
AUGUSTA        FAIR      52  46  80 W5        29.87R
CHOTEAU          N/A     55  46  71 S6        29.86R
FAIRFIELD      MOCLDY    56  47  72 SW12      29.84R
POWER          MOCLDY    48  46  93 S6        29.83F
RAYNESFORD     FAIR      48  44  86 NE3       29.87F
ULM            MOCLDY    55  49  82 S7        29.86R
WHITE SULPHUR    N/A     52  46  82 S10       29.95R
$$

MTZ011-013-016-021-045-047-050-051-241200-
NORTH CENTRAL MONTANA

CITY           SKY/WX    TMP DP  RH WIND       PRES   REMARKS
HAVRE          FAIR      52  51  97 SW6       29.80S
LEWISTOWN      FAIR      45  45 100 CALM      29.88S
N BAR RANCH    FAIR      48  46  93 W8        29.91S
CHINOOK          N/A     54  54 100 CALM      29.80S
DENTON         FAIR      48  46  95 S10       29.83F
GEYSER         FAIR      51  45  80 SW9       29.87S
GRASS RANGE    FAIR      52  49  89 W13       29.84S
JUDITH GAP     FAIR      48  44  87 CALM      29.91S
ROY            FAIR      50  48  93 W8        29.84S
STANFORD       FAIR      51  44  76 CALM      29.88F
$$

MTZ017>020-022>027-061-062-241200-
NORTHEAST MONTANA

CITY           SKY/WX    TMP DP  RH WIND       PRES   REMARKS
GLASGOW        FOG       58  57  97 NW5       29.76F VSB 3/4
GLENDIVE       FAIR      56  54  93 S5        29.82S
JORDAN           N/A     57  56  96 W10       29.81R
MALTA          CLOUDY    54  54 100 SW5       29.79S
SIDNEY         FAIR      53  52  96 W5        29.81R
WOLF POINT     FAIR      58  57  97 W5        29.78R FOG
PLENTYWOOD       N/A     59  59 100 CALM      29.78S
POPLAR           N/A     57  55  94 CALM      29.78S
SCOBEY           N/A     58  52  80 CALM      29.78S VSB 0
$$

MTZ028>42-056>058-241200-
SOUTHCENTRAL AND SOUTHEAST MONTANA

CITY           SKY/WX    TMP DP  RH WIND       PRES   REMARKS
BAKER          MOCLDY    55  54  96 CALM      29.85R
BILLINGS       FAIR      56  50  80 SW10      29.89S
LIVINGSTON     FAIR      51  45  79 W15G26    29.95R
MILES CITY     FAIR      54  54 100 S3        29.84R
BIG TIMBER     CLEAR     52  46  82 SW12      29.94S
EKALAKA          N/A     56  47  71 SW1       29.87S
FORSYTH          N/A     55  55 100 SW5       29.84
HARLOWTON      FAIR      53  47  82 W16G24    29.90S
LAUREL           N/A     50  48  93 SW7       29.91S
$$

REGIONAL REPORTS...DAKOTAS

CITY           SKY/WX    TMP DP  RH WIND       PRES   REMARKS
WILLISTON      FAIR      58  55  90 CALM      29.79R
MINOT          FAIR      63  60  90 SE7       29.77S
DICKINSON      FAIR      56  52  86 S10       29.81R
BEACH          FAIR      52  52 100 S6        29.85R
CROSBY         FAIR      55  55 100 CALM      29.79S
TIOGA          FAIR      57  59 100 S15       29.79F
WATFORD CITY   MOCLDY    59  57  94 W9        29.79R
BISMARCK       CLOUDY    64  61  90 S5        29.81R
GRAND FORKS    MOCLDY    63  62  97 SE8       29.83S
FARGO          FAIR      70  65  84 SE13      29.85S
BUFFALO SD       N/A     55  49  80 S8        29.80S
RAPID CITY     FAIR      56  47  71 S8        29.92R
$$

REGIONAL REPORTS...WYOMING/IDAHO/WASHINGTON

CITY           SKY/WX    TMP DP  RH WIND       PRES   REMARKS
GILLETTE       FAIR      51  46  83 W9        29.95R
SHERIDAN       FAIR      52  50  93 S3        29.93S
BUFFALO WY     MOCLDY    51  46  83 S7        29.98S
CODY           FAIR      56  42  59 W5        30.00R
YELLOWSTONE LA   N/A     35  35 100 CALM      30.19R
IDAHO FALLS    FAIR      46  46 100 CALM      30.07R
SALMON         CLOUDY    53  51  93 CALM      30.01R
BOISE          FAIR      57  53  86 SE6       29.96R
SPOKANE        CLOUDY    59  55  87 CALM      29.88R
$$

REGIONAL REPORTS...ALBERTA

CITY           SKY/WX    TMP DP  RH WIND       PRES   REMARKS
CALGARY        MOCLDY    68  36  30 E10       29.73F
EDMONTON       CLEAR     50  43  76 E2        29.70F
FORT MCMURRAY  CLEAR     57  45  62 SE5       29.72R
HIGH LEVEL     CLEAR     59  52  77 N8        29.69R
LETHBRIDGE     CLEAR     52  43  71 SW7       29.76S
LLOYDMINSTER   CLOUDY    63  52  67 SE7       29.75S
MEDICINE HAT   CLEAR     55  50  82 VRB2      29.74F
MILK RIVER       N/A     48  46  93 SW3         N/A
PEACE RIVER    PTCLDY    52  41  66 NE5       29.65S
PINCHER CREEK    N/A     55  45  67 W9        29.82R
WATERTON GATE    N/A     59  43  55 SW18G28     N/A
$$

REGIONAL REPORTS...SASKATCHEWAN

CITY           SKY/WX    TMP DP  RH WIND       PRES   REMARKS
CORONACH         N/A     57  57 100 NW3         N/A
CYPRESS HILLS    N/A     54  48  82 SW5         N/A
ESTEVAN        MOCLDY    54  54 100 CALM      29.78R FOG
MOOSE JAW        N/A     57  55  94 W8          N/A
PRINCE ALBERT  CLOUDY    63  57  82 S3        29.81R
REGINA         MOCLDY    59  57  94 NE3       29.77S THUNDER
ROCKGLEN         N/A     57  55  94 N6          N/A
SASKATOON      CLOUDY    61  59  94 SW3       29.80S
SWIFT CURRENT  FOG       50  50 100 S6        29.78S VSB 1/4
VAL MARIE        N/A     52  50  93 N2          N/A
$$



USA.gov is the U.S. government's official web portal to all federal, state and local government web resources and services.